KD5HIA Weather Reports


Display with metric or nautical units.
time (UTC)temp
F
wind
direction
speed
MPH
gust
MPH
rain 1hr
in
rain 24hr
in
rain mn
in
humidity
%
barometer
mb
20260901101516 79 180 7.0 12.0 0.00 0.00 0.00 62 1017.1
20260901100516 79 180 7.0 12.0 0.00 0.00 0.00 61 1017.0
20260901095516 80 158 8.0 12.0 0.00 0.00 0.00 61 1017.1
20260901094516 80 180 9.0 15.0 0.00 0.00 0.00 61 1016.8
20260901093519 80 180 9.0 14.0 0.00 0.00 0.00 60 1016.8
20260901092519 80 180 10.0 15.0 0.00 0.00 0.00 60 1016.9
20260901091519 80 158 10.0 15.0 0.00 0.00 0.00 61 1016.7
20260901090516 80 158 10.0 14.0 0.00 0.00 0.00 61 1016.7
20260901085516 81 158 9.0 14.0 0.00 0.00 0.00 60 1016.7
20260901084516 81 158 8.0 12.0 0.00 0.00 0.00 60 1016.8
20260901083516 81 158 9.0 14.0 0.00 0.00 0.00 59 1016.9
20260901082516 81 158 7.0 12.0 0.00 0.00 0.00 59 1016.9
20260901081516 81 158 9.0 14.0 0.00 0.00 0.00 58 1016.7
20260901080516 81 158 9.0 14.0 0.00 0.00 0.00 58 1016.7
20260901075516 82 158 10.0 16.0 0.00 0.00 0.00 57 1016.7
20260901074516 82 158 10.0 17.0 0.00 0.00 0.00 56 1016.7
20260901073516 82 158 11.0 17.0 0.00 0.00 0.00 56 1016.7
20260901072516 82 158 11.0 16.0 0.00 0.00 0.00 55 1016.7
20260901071516 82 158 9.0 14.0 0.00 0.00 0.00 55 1016.7
20260901070516 82 158 6.0 9.0 0.00 0.00 0.00 56 1016.7
20260901065516 82 135 5.0 8.0 0.00 0.00 0.00 56 1016.7
20260901064516 82 135 6.0 9.0 0.00 0.00 0.00 56 1016.9
20260901063516 81 158 5.0 9.0 0.00 0.00 0.00 56 1016.6
20260901062516 81 158 5.0 8.0 0.00 0.00 0.00 56 1016.5
20260901061516 81 135 5.0 9.0 0.00 0.00 0.00 55 1016.4
20260901060516 81 158 5.0 7.0 0.00 0.00 0.00 56 1016.5
20260901055516 81 135 4.0 8.0 0.00 0.00 0.00 55 1016.4
20260901054516 81 135 4.0 5.0 0.00 0.00 0.00 55 1016.4
20260901053516 82 135 4.0 5.0 0.00 0.00 0.00 54 1016.3
20260901052516 82 135 4.0 7.0 0.00 0.00 0.00 54 1016.3
20260901051516 82 135 4.0 6.0 0.00 0.00 0.00 53 1016.2
20260901050516 82 135 3.0 6.0 0.00 0.00 0.00 53 1016.1
20260901045516 83 135 4.0 5.0 0.00 0.00 0.00 52 1016.1
20260901044516 83 135 4.0 7.0 0.00 0.00 0.00 51 1016.0
20260901043516 83 135 4.0 7.0 0.00 0.00 0.00 51 1015.7
20260901042516 83 113 5.0 7.0 0.00 0.00 0.00 51 1015.7
20260901041516 83 113 5.0 7.0 0.00 0.00 0.00 51 1015.7
20260901040516 84 113 5.0 7.0 0.00 0.00 0.00 50 1015.6
20260901035516 84 135 5.0 7.0 0.00 0.00 0.00 49 1015.5
20260901034516 85 135 5.0 8.0 0.00 0.00 0.00 48 1015.4
20260901033516 85 113 5.0 8.0 0.00 0.00 0.00 47 1015.3
20260901032516 85 135 5.0 8.0 0.00 0.00 0.00 46 1015.2
20260901031516 86 135 7.0 10.0 0.00 0.00 0.00 45 1015.1
20260901030516 86 135 7.0 11.0 0.00 0.00 0.00 45 1014.9
20260901025516 86 113 6.0 8.0 0.00 0.00 0.00 45 1014.6
20260901024516 87 113 5.0 8.0 0.00 0.00 0.00 44 1014.6
20260901023516 88 135 7.0 10.0 0.00 0.00 0.00 43 1014.3
20260901022516 88 135 6.0 10.0 0.00 0.00 0.00 42 1014.1
20260901021516 88 135 6.0 10.0 0.00 0.00 0.00 41 1013.9
20260901020516 89 135 7.0 9.0 0.00 0.00 0.00 40 1013.7
20260901015516 90 135 8.0 12.0 0.00 0.00 0.00 39 1013.6
20260901014516 90 135 9.0 12.0 0.00 0.00 0.00 39 1013.5
20260901013516 91 135 9.0 13.0 0.00 0.00 0.00 38 1013.2
20260901012516 91 135 10.0 13.0 0.00 0.00 0.00 38 1013.2
20260901011516 92 135 10.0 14.0 0.00 0.00 0.00 37 1013.3
20260901010516 92 113 12.0 15.0 0.00 0.00 0.00 37 1013.1
20260901005516 93 135 10.0 14.0 0.00 0.00 0.00 36 1013.2
20260901004516 93 113 10.0 14.0 0.00 0.00 0.00 36 1013.2
20260901003516 94 113 10.0 14.0 0.00 0.00 0.00 36 1013.0
20260901002516 94 135 8.0 14.0 0.00 0.00 0.00 35 1013.0
20260901001516 95 90 4.0 11.0 0.00 0.00 0.00 35 1012.9
20260901000516 95 135 7.0 11.0 0.00 0.00 0.00 34 1012.9
20260831235516 95 113 7.0 12.0 0.00 0.00 0.00 33 1012.7
20260831234516 96 90 5.0 13.0 0.00 0.00 0.00 33 1012.8
20260831233516 96 113 8.0 16.0 0.00 0.00 0.00 32 1012.8
20260831232516 96 90 4.0 10.0 0.00 0.00 0.00 32 1012.8
20260831231516 97 90 6.0 11.0 0.00 0.00 0.00 31 1012.8
20260831230516 97 135 6.0 11.0 0.00 0.00 0.00 32 1013.0
20260831225516 96 90 3.0 8.0 0.00 0.00 0.00 33 1013.0
20260831224516 96 90 4.0 9.0 0.00 0.00 0.00 34 1013.0
20260831223516 97 90 2.0 4.0 0.00 0.00 0.00 32 1013.2
20260831222516 98 90 3.0 7.0 0.00 0.00 0.00 31 1013.3
20260831221516 96 90 4.0 9.0 0.00 0.00 0.00 32 1013.3
20260831220516 98 135 7.0 12.0 0.00 0.00 0.00 32 1013.4
20260831215516 99 90 6.0 10.0 0.00 0.00 0.00 31 1013.7
20260831214516 100 90 5.0 12.0 0.00 0.00 0.00 30 1013.8
20260831213516 100 90 8.0 16.0 0.00 0.00 0.00 30 1014.0
20260831212516 100 113 7.0 13.0 0.00 0.00 0.00 29 1014.1
20260831211516 99 68 3.0 7.0 0.00 0.00 0.00 30 1014.1
20260831210519 99 203 4.0 9.0 0.00 0.00 0.00 29 1014.4
20260831205519 99 135 4.0 9.0 0.00 0.00 0.00 31 1014.6
20260831204520 97 158 4.0 9.0 0.00 0.00 0.00 30 1014.6
20260831203516 97 158 4.0 8.0 0.00 0.00 0.00 33 1014.8
20260831202516 98 135 10.0 14.0 0.00 0.00 0.00 32 1015.0
20260831201516 98 180 6.0 16.0 0.00 0.00 0.00 34 1015.1
20260831200516 97 158 7.0 13.0 0.00 0.00 0.00 34 1015.2
20260831195516 97 135 3.0 10.0 0.00 0.00 0.00 32 1015.3
20260831194516 97 180 5.0 9.0 0.00 0.00 0.00 35 1015.5
20260831193516 96 158 5.0 9.0 0.00 0.00 0.00 32 1015.6
20260831192516 97 158 8.0 11.0 0.00 0.00 0.00 33 1015.8
20260831191516 96 135 6.0 12.0 0.00 0.00 0.00 34 1015.8
20260831190516 97 135 8.0 13.0 0.00 0.00 0.00 33 1016.1
20260831185516 97 135 5.0 14.0 0.00 0.00 0.00 34 1016.1
20260831184516 96 158 6.0 10.0 0.00 0.00 0.00 36 1016.3
20260831183516 94 135 1.0 6.0 0.00 0.00 0.00 38 1016.4
20260831182516 95 158 3.0 9.0 0.00 0.00 0.00 40 1016.8
20260831181516 93 180 7.0 18.0 0.00 0.00 0.00 40 1016.9
20260831180516 95 135 9.0 16.0 0.00 0.00 0.00 39 1017.2
20260831175516 94 180 8.0 12.0 0.00 0.00 0.00 41 1017.1
20260831174516 95 158 6.0 13.0 0.00 0.00 0.00 40 1017.2
20260831173516 94 180 8.0 17.0 0.00 0.00 0.00 42 1017.4
20260831172516 93 158 7.0 14.0 0.00 0.00 0.00 43 1017.3
20260831171516 93 180 7.0 15.0 0.00 0.00 0.00 43 1017.3
20260831170516 93 180 7.0 16.0 0.00 0.00 0.00 44 1017.6
20260831165516 92 225 5.0 11.0 0.00 0.00 0.00 46 1017.6
20260831164516 92 203 5.0 10.0 0.00 0.00 0.00 47 1017.7
20260831163516 91 203 6.0 11.0 0.00 0.00 0.00 49 1017.6
20260831162516 90 203 6.0 11.0 0.00 0.00 0.00 49 1017.6
20260831161516 89 180 6.0 10.0 0.00 0.00 0.00 51 1017.7
20260831160516 88 203 6.0 10.0 0.00 0.00 0.00 52 1017.7
20260831155516 88 180 5.0 9.0 0.00 0.00 0.00 52 1017.6
20260831154516 87 203 5.0 10.0 0.00 0.00 0.00 54 1017.5
20260831153516 87 225 5.0 9.0 0.00 0.00 0.00 55 1017.5
20260831152516 86 203 6.0 12.0 0.00 0.00 0.00 54 1017.3
20260831151516 85 203 8.0 15.0 0.00 0.00 0.00 55 1017.2
20260831150516 84 203 6.0 12.0 0.00 0.00 0.00 57 1017.2
20260831145516 84 203 7.0 12.0 0.00 0.00 0.00 58 1017.1
20260831144516 83 203 8.0 13.0 0.00 0.00 0.00 60 1017.1
20260831143516 83 203 8.0 14.0 0.00 0.00 0.00 61 1017.1
20260831142516 82 203 9.0 15.0 0.00 0.00 0.00 62 1017.1
20260831141516 81 203 10.0 15.0 0.00 0.00 0.00 64 1016.9
20260831140516 81 203 11.0 19.0 0.00 0.00 0.00 66 1016.9
20260831135516 80 203 11.0 18.0 0.00 0.00 0.00 68 1016.9
20260831134527 79 203 9.0 14.0 0.00 0.00 0.00 71 1016.7
20260831133517 78 180 7.0 11.0 0.00 0.00 0.00 72 1016.6
20260831132516 77 180 7.0 11.0 0.00 0.00 0.00 73 1016.5
20260831131516 76 203 5.0 10.0 0.00 0.00 0.00 74 1016.3
20260831130516 76 203 4.0 8.0 0.00 0.00 0.00 75 1016.3
20260831125516 76 203 6.0 10.0 0.00 0.00 0.00 75 1016.1
20260831124516 75 203 5.0 11.0 0.00 0.00 0.00 76 1016.0
20260831123516 75 203 7.0 12.0 0.00 0.00 0.00 75 1016.0
20260831122516 75 203 8.0 13.0 0.00 0.00 0.00 75 1015.8
20260831121516 75 203 9.0 19.0 0.00 0.00 0.00 74 1015.7
20260831120516 75 180 7.0 11.0 0.00 0.00 0.00 74 1015.7
20260831115516 76 180 8.0 15.0 0.00 0.00 0.00 73 1015.6
20260831114516 76 180 10.0 16.0 0.00 0.00 0.00 72 1015.6
20260831113516 76 180 9.0 14.0 0.00 0.00 0.00 72 1015.7
20260831112516 76 180 8.0 16.0 0.00 0.00 0.00 72 1015.7
20260831111516 76 180 8.0 13.0 0.00 0.00 0.00 71 1015.7
20260831110516 76 180 8.0 12.0 0.00 0.00 0.00 71 1015.6
20260831105516 77 180 9.0 15.0 0.00 0.00 0.00 71 1015.6
20260831104516 77 180 9.0 14.0 0.00 0.00 0.00 70 1015.7
20260831103516 77 158 8.0 14.0 0.00 0.00 0.00 70 1015.8
20260831102516 77 180 8.0 13.0 0.00 0.00 0.00 69 1015.8